owner,sensor,date,latitude,longitude,vertical_datum,wind_speed,wind_to_direction,wind_speed_of_gust,qcFlag 
TABS,ioos:station:wmo:42046:1,2007-09-01T00:00:00Z,27.8903,-94.0367,4.0,0.563205114,343.4954668,1.3,'11111222,11111222,11111222' 
TABS,ioos:station:wmo:42046:1,2007-09-01T00:30:00Z,27.8903,-94.0367,4.0,1.830983342,358.1219165,2.97,'11111222,11111222,11111222' 
TABS,ioos:station:wmo:42046:1,2007-09-01T01:00:00Z,27.8903,-94.0367,4.0,1.827183625,7.863795947,2.9,'11111222,11111222,11111222' 
TABS,ioos:station:wmo:42046:1,2007-09-01T01:30:00Z,27.8903,-94.0367,4.0,1.823951754,356.2275148,2.84,'11111222,11111222,11111222' 
TABS,ioos:station:wmo:42046:1,2007-09-01T02:00:00Z,27.8903,-94.0367,4.0,2.019554406,23.64535688,3.14,'11111222,11111222,11111222' 
TABS,ioos:station:wmo:42046:1,2007-09-01T02:30:00Z,27.8903,-94.0367,4.0,1.386542462,25.64073541,2.27,'11111222,11111222,11111222' 
TABS,ioos:station:wmo:42046:1,2007-09-01T03:00:00Z,27.8903,-94.0367,4.0,1.851512895,40.3995994,3.0,'11111222,11111222,11111222' 
TABS,ioos:station:wmo:42046:1,2007-09-01T03:30:00Z,27.8903,-94.0367,4.0,1.522957649,34.83762488,3.04,'11111222,11111222,11111222' 
TABS,ioos:station:wmo:42046:1,2007-09-01T04:00:00Z,27.8903,-94.0367,4.0,1.154512884,24.56690341,2.12,'11111222,11111222,11111222' 
TABS,ioos:station:wmo:42046:1,2007-09-01T04:30:00Z,27.8903,-94.0367,4.0,1.468638826,40.30478101,2.37,'11111222,11111222,11111222' 
TABS,ioos:station:wmo:42046:1,2007-09-01T05:00:00Z,27.8903,-94.0367,4.0,1.166190379,67.8332851,1.98,'11111222,11111222,11111222' 
TABS,ioos:station:wmo:42046:1,2007-09-01T05:30:00Z,27.8903,-94.0367,4.0,0.771297608,103.4961226,1.6,'11111222,11111222,11111222' 
TABS,ioos:station:wmo:42046:1,2007-09-01T06:00:00Z,27.8903,-94.0367,4.0,1.213136431,150.8998011,2.0,'11111222,11111222,11111222' 
TABS,ioos:station:wmo:42046:1,2007-09-01T06:30:00Z,27.8903,-94.0367,4.0,1.440590157,118.1664242,2.54,'11111222,11111222,11111222' 
TABS,ioos:station:wmo:42046:1,2007-09-01T07:00:00Z,27.8903,-94.0367,4.0,2.484210136,137.4473586,3.53,'11111222,11111222,11111222' 
TABS,ioos:station:wmo:42046:1,2007-09-01T07:30:00Z,27.8903,-94.0367,4.0,3.203903869,157.0364911,4.22,'11111222,11111222,11111222' 
TABS,ioos:station:wmo:42046:1,2007-09-01T08:00:00Z,27.8903,-94.0367,4.0,2.449020212,156.1565494,4.14,'11111222,11111222,11111222' 
TABS,ioos:station:wmo:42046:1,2007-09-01T08:30:00Z,27.8903,-94.0367,4.0,1.076289924,131.9875352,1.96,'11111222,11111222,11111222' 
TABS,ioos:station:wmo:42046:1,2007-09-01T09:00:00Z,27.8903,-94.0367,4.0,0.191049732,227.1211967,1.72,'11111222,11111222,11111222' 
TABS,ioos:station:wmo:42046:1,2007-09-01T09:30:00Z,27.8903,-94.0367,4.0,1.896127633,201.0159776,2.9,'11111222,11111222,11111222' 
TABS,ioos:station:wmo:42046:1,2007-09-01T10:00:00Z,27.8903,-94.0367,4.0,1.647938106,203.6096248,2.88,'11111222,11111222,11111222' 
TABS,ioos:station:wmo:42046:1,2007-09-01T10:30:00Z,27.8903,-94.0367,4.0,3.260061349,143.4819016,6.58,'11111222,11111222,11111222' 
TABS,ioos:station:wmo:42046:1,2007-09-01T11:00:00Z,27.8903,-94.0367,4.0,2.794029348,356.9223413,5.02,'11111222,11111222,11111222' 
TABS,ioos:station:wmo:42046:1,2007-09-01T11:30:00Z,27.8903,-94.0367,4.0,2.115183207,13.11619499,3.04,'11111222,11111222,11111222' 
TABS,ioos:station:wmo:42046:1,2007-09-01T12:00:00Z,27.8903,-94.0367,4.0,1.630766691,268.2430158,5.22,'11111222,11111222,11111222' 
TABS,ioos:station:wmo:42046:1,2007-09-01T12:30:00Z,27.8903,-94.0367,4.0,2.76240837,343.5985826,3.96,'11111222,11111222,11111222' 
TABS,ioos:station:wmo:42046:1,2007-09-01T13:00:00Z,27.8903,-94.0367,4.0,1.420211252,330.0047801,2.36,'11111222,11111222,11111222' 
TABS,ioos:station:wmo:42046:1,2007-09-01T13:30:00Z,27.8903,-94.0367,4.0,1.987586476,9.556871414,2.78,'11111222,11111222,11111222' 
TABS,ioos:station:wmo:42046:1,2007-09-01T14:00:00Z,27.8903,-94.0367,4.0,5.093132631,263.4610532,6.7,'11111222,11111222,11111222' 
TABS,ioos:station:wmo:42046:1,2007-09-01T14:30:00Z,27.8903,-94.0367,4.0,3.137004941,288.2038761,4.32,'11111222,11111222,11111222' 
TABS,ioos:station:wmo:42046:1,2007-09-01T15:00:00Z,27.8903,-94.0367,4.0,4.423222807,324.4772528,5.36,'11111222,11111222,11111222' 
TABS,ioos:station:wmo:42046:1,2007-09-01T15:30:00Z,27.8903,-94.0367,4.0,3.012723021,321.8746967,4.25,'11111222,11111222,11111222' 
TABS,ioos:station:wmo:42046:1,2007-09-01T16:00:00Z,27.8903,-94.0367,4.0,3.82058896,331.8920823,5.22,'11111222,11111222,11111222' 
TABS,ioos:station:wmo:42046:1,2007-09-01T16:30:00Z,27.8903,-94.0367,4.0,4.165153058,315.6807957,5.36,'11111222,11111222,11111222' 
TABS,ioos:station:wmo:42046:1,2007-09-01T17:00:00Z,27.8903,-94.0367,4.0,3.945681183,315.2052546,5.34,'11111222,11111222,11111222' 
TABS,ioos:station:wmo:42046:1,2007-09-01T17:30:00Z,27.8903,-94.0367,4.0,4.043575151,320.7204442,5.0,'11111222,11111222,11111222' 
TABS,ioos:station:wmo:42046:1,2007-09-01T18:00:00Z,27.8903,-94.0367,4.0,3.395305583,332.0762651,4.72,'11111222,11111222,11111222' 
TABS,ioos:station:wmo:42046:1,2007-09-01T18:30:00Z,27.8903,-94.0367,4.0,2.3401923,359.2652702,3.27,'11111222,11144222,11111222' 
TABS,ioos:station:wmo:42046:1,2007-09-01T19:00:00Z,27.8903,-94.0367,4.0,2.257188517,4.573700105,3.29,'11111222,11111222,11111222' 
TABS,ioos:station:wmo:42046:1,2007-09-01T19:30:00Z,27.8903,-94.0367,4.0,2.235911447,17.70537,3.27,'11111222,11111222,11111222' 
TABS,ioos:station:wmo:42046:1,2007-09-01T20:00:00Z,27.8903,-94.0367,4.0,2.150581317,19.27721755,3.79,'11111222,11111222,11111222' 
TABS,ioos:station:wmo:42046:1,2007-09-01T20:30:00Z,27.8903,-94.0367,4.0,3.350492501,25.26456662,4.61,'11111222,11111222,11111222' 
TABS,ioos:station:wmo:42046:1,2007-09-01T21:00:00Z,27.8903,-94.0367,4.0,3.190235101,30.10102372,4.63,'11111222,11111222,11111222' 
TABS,ioos:station:wmo:42046:1,2007-09-01T21:30:00Z,27.8903,-94.0367,4.0,2.460081299,27.60640284,3.94,'11111222,11111222,11111222' 
TABS,ioos:station:wmo:42046:1,2007-09-01T22:00:00Z,27.8903,-94.0367,4.0,1.56588633,24.92820538,3.01,'11111222,11111222,11111222' 
TABS,ioos:station:wmo:42046:1,2007-09-01T22:30:00Z,27.8903,-94.0367,4.0,1.538440769,26.23166813,3.01,'11111222,11111222,11111222' 
TABS,ioos:station:wmo:42046:1,2007-09-01T23:00:00Z,27.8903,-94.0367,4.0,1.065082156,55.71278228,1.95,'11111222,11111222,11111222' 
TABS,ioos:station:wmo:42046:1,2007-09-01T23:30:00Z,27.8903,-94.0367,4.0,1.284250754,49.73711658,2.33,'11111222,11111222,11111222' 
TABS,ioos:station:wmo:42046:1,2007-09-02T00:00:00Z,27.8903,-94.0367,4.0,0.877268488,65.77189042,1.79,'11111222,11111222,11111222' 
TABS,ioos:station:wmo:42046:1,2007-09-02T00:30:00Z,27.8903,-94.0367,4.0,0.664003012,52.95719093,1.66,'11111222,11111222,11111222' 
TABS,ioos:station:wmo:42046:1,2007-09-02T01:00:00Z,27.8903,-94.0367,4.0,1.785385113,77.05309984,2.76,'11111222,11111222,11111222' 
TABS,ioos:station:wmo:42046:1,2007-09-02T01:30:00Z,27.8903,-94.0367,4.0,1.613102601,93.55459084,3.8,'11111222,11111222,11111222' 
TABS,ioos:station:wmo:42046:1,2007-09-02T02:00:00Z,27.8903,-94.0367,4.0,2.512946478,119.8300731,4.01,'11111222,11111222,11111222' 
TABS,ioos:station:wmo:42046:1,2007-09-02T02:30:00Z,27.8903,-94.0367,4.0,3.488524043,121.6401285,4.53,'11111222,11111222,11111222' 
TABS,ioos:station:wmo:42046:1,2007-09-02T03:00:00Z,27.8903,-94.0367,4.0,3.205386092,120.5655864,4.49,'11111222,11111222,11111222' 
TABS,ioos:station:wmo:42046:1,2007-09-02T03:30:00Z,27.8903,-94.0367,4.0,2.925696498,131.5362831,4.22,'11111222,11111222,11111222' 
TABS,ioos:station:wmo:42046:1,2007-09-02T04:00:00Z,27.8903,-94.0367,4.0,3.343321702,144.7415214,4.23,'11111222,11111222,11111222' 
TABS,ioos:station:wmo:42046:1,2007-09-02T04:30:00Z,27.8903,-94.0367,4.0,2.184032967,159.0757576,3.07,'11111222,11111222,11111222' 
TABS,ioos:station:wmo:42046:1,2007-09-02T05:00:00Z,27.8903,-94.0367,4.0,1.874886663,168.9300338,2.6,'11111222,11111222,11111222' 
TABS,ioos:station:wmo:42046:1,2007-09-02T05:30:00Z,27.8903,-94.0367,4.0,2.270352396,178.9907,3.22,'11111222,11111222,11111222' 
TABS,ioos:station:wmo:42046:1,2007-09-02T06:00:00Z,27.8903,-94.0367,4.0,2.218220007,153.7817634,3.03,'11111222,11111222,11111222' 
TABS,ioos:station:wmo:42046:1,2007-09-02T06:30:00Z,27.8903,-94.0367,4.0,1.461848145,159.5818327,2.23,'11111222,11111222,11111222' 
TABS,ioos:station:wmo:42046:1,2007-09-02T07:00:00Z,27.8903,-94.0367,4.0,1.320037878,164.1740934,2.0,'11111222,11111222,11111222' 
TABS,ioos:station:wmo:42046:1,2007-09-02T07:30:00Z,27.8903,-94.0367,4.0,1.261150269,190.508208,2.21,'11111222,11111222,11111222' 
TABS,ioos:station:wmo:42046:1,2007-09-02T08:00:00Z,27.8903,-94.0367,4.0,1.336637572,195.1801024,2.51,'11111222,11111222,11111222' 
TABS,ioos:station:wmo:42046:1,2007-09-02T08:30:00Z,27.8903,-94.0367,4.0,1.900973435,199.674263,2.5,'11111222,11111222,11111222' 
TABS,ioos:station:wmo:42046:1,2007-09-02T09:00:00Z,27.8903,-94.0367,4.0,1.901604586,193.3787194,2.75,'11111222,11111222,11111222' 
TABS,ioos:station:wmo:42046:1,2007-09-02T09:30:00Z,27.8903,-94.0367,4.0,1.816617736,165.658018,2.66,'11111222,11111222,11111222' 
TABS,ioos:station:wmo:42046:1,2007-09-02T10:00:00Z,27.8903,-94.0367,4.0,1.790111728,180.6403586,2.44,'11111222,11111222,11111222' 
TABS,ioos:station:wmo:42046:1,2007-09-02T10:30:00Z,27.8903,-94.0367,4.0,2.436801182,200.6662856,3.29,'11111222,11111222,11111222' 
TABS,ioos:station:wmo:42046:1,2007-09-02T11:00:00Z,27.8903,-94.0367,4.0,2.670599184,193.2038454,3.41,'11111222,11111222,11111222' 
TABS,ioos:station:wmo:42046:1,2007-09-02T11:30:00Z,27.8903,-94.0367,4.0,2.795013417,200.9640843,3.83,'11111222,11111222,11111222' 
TABS,ioos:station:wmo:42046:1,2007-09-02T12:00:00Z,27.8903,-94.0367,4.0,2.658307732,120.5205347,4.64,'11111222,11111222,11111222' 
TABS,ioos:station:wmo:42046:1,2007-09-02T12:30:00Z,27.8903,-94.0367,4.0,1.635267562,199.6539886,2.94,'11111222,11111222,11111222' 
TABS,ioos:station:wmo:42046:1,2007-09-02T13:00:00Z,27.8903,-94.0367,4.0,0.827103379,194.70848,2.05,'11111222,11111222,11111222' 
TABS,ioos:station:wmo:42046:1,2007-09-02T13:30:00Z,27.8903,-94.0367,4.0,2.798660394,184.5088176,3.67,'11111222,11111222,11111222' 
TABS,ioos:station:wmo:42046:1,2007-09-02T14:00:00Z,27.8903,-94.0367,4.0,2.420185943,180.7104507,3.18,'11111222,11111222,11111222' 
TABS,ioos:station:wmo:42046:1,2007-09-02T14:30:00Z,27.8903,-94.0367,4.0,2.666927071,202.7191784,3.56,'11111222,11111222,11111222' 
TABS,ioos:station:wmo:42046:1,2007-09-02T15:00:00Z,27.8903,-94.0367,4.0,2.714258646,191.4757104,3.69,'11111222,11111222,11111222' 
TABS,ioos:station:wmo:42046:1,2007-09-02T15:30:00Z,27.8903,-94.0367,4.0,3.037647116,151.916694,4.43,'11111222,11111222,11111222' 
TABS,ioos:station:wmo:42046:1,2007-09-02T16:00:00Z,27.8903,-94.0367,4.0,2.060388313,181.1126075,2.76,'11111222,11111222,11111222' 
TABS,ioos:station:wmo:42046:1,2007-09-02T16:30:00Z,27.8903,-94.0367,4.0,1.701558109,170.8700553,2.55,'11111222,11111222,11111222' 
TABS,ioos:station:wmo:42046:1,2007-09-02T17:00:00Z,27.8903,-94.0367,4.0,2.453487314,150.7188519,3.9,'11111222,11111222,11111222' 
TABS,ioos:station:wmo:42046:1,2007-09-02T17:30:00Z,27.8903,-94.0367,4.0,2.300825939,157.7826681,3.19,'11111222,11111222,11111222' 
TABS,ioos:station:wmo:42046:1,2007-09-02T18:00:00Z,27.8903,-94.0367,4.0,2.282651966,124.1081105,3.57,'11111222,11111222,11111222' 
TABS,ioos:station:wmo:42046:1,2007-09-02T18:30:00Z,27.8903,-94.0367,4.0,2.849456088,131.016009,5.8,'11111222,11111222,11111222' 
TABS,ioos:station:wmo:42046:1,2007-09-02T19:00:00Z,27.8903,-94.0367,4.0,3.701958941,204.0726459,5.45,'11111222,11111222,11111222' 
TABS,ioos:station:wmo:42046:1,2007-09-02T19:30:00Z,27.8903,-94.0367,4.0,4.544007042,306.7689389,6.04,'11111222,11111222,11111222' 
TABS,ioos:station:wmo:42046:1,2007-09-02T20:00:00Z,27.8903,-94.0367,4.0,3.460361253,312.7748029,4.51,'11111222,11111222,11111222' 
TABS,ioos:station:wmo:42046:1,2007-09-02T20:30:00Z,27.8903,-94.0367,4.0,5.856833616,201.7470709,8.65,'11111222,11111222,11111222' 
TABS,ioos:station:wmo:42046:1,2007-09-02T21:00:00Z,27.8903,-94.0367,4.0,1.828879438,256.723634,2.49,'11111222,11111222,11111222' 
TABS,ioos:station:wmo:42046:1,2007-09-02T21:30:00Z,27.8903,-94.0367,4.0,1.517003626,335.4621184,2.22,'11111222,11111222,11111222' 
TABS,ioos:station:wmo:42046:1,2007-09-02T22:00:00Z,27.8903,-94.0367,4.0,2.960016892,0.193355175,3.7,'11111222,11111222,11111222' 
TABS,ioos:station:wmo:42046:1,2007-09-02T22:30:00Z,27.8903,-94.0367,4.0,2.720680062,28.54295365,3.68,'11111222,11111222,11111222' 
TABS,ioos:station:wmo:42046:1,2007-09-02T23:00:00Z,27.8903,-94.0367,4.0,3.373366271,51.49901539,4.52,'11111222,11111222,11111222' 
TABS,ioos:station:wmo:42046:1,2007-09-02T23:30:00Z,27.8903,-94.0367,4.0,1.629294326,98.82677123,2.73,'11111222,11111222,11111222' 
TABS,ioos:station:wmo:42046:1,2007-09-03T00:00:00Z,27.8903,-94.0367,4.0,2.00551739,111.9609336,2.74,'11111222,11111222,11111222' 
TABS,ioos:station:wmo:42046:1,2007-09-03T00:30:00Z,27.8903,-94.0367,4.0,2.101523257,98.20761814,3.02,'11111222,11111222,11111222' 
TABS,ioos:station:wmo:42046:1,2007-09-03T01:00:00Z,27.8903,-94.0367,4.0,2.336835467,83.11787154,3.3,'11111222,11111222,11111222' 
TABS,ioos:station:wmo:42046:1,2007-09-03T01:30:00Z,27.8903,-94.0367,4.0,3.101112704,68.23252934,4.01,'11111222,11111222,11111222' 
TABS,ioos:station:wmo:42046:1,2007-09-03T02:00:00Z,27.8903,-94.0367,4.0,2.525569243,83.63434941,3.37,'11111222,11111222,11111222' 
TABS,ioos:station:wmo:42046:1,2007-09-03T02:30:00Z,27.8903,-94.0367,4.0,3.1,90.00042092,4.08,'11111222,11111222,11111222' 
TABS,ioos:station:wmo:42046:1,2007-09-03T03:00:00Z,27.8903,-94.0367,4.0,2.612316979,87.58624829,3.76,'11111222,11111222,11111222' 
TABS,ioos:station:wmo:42046:1,2007-09-03T03:30:00Z,27.8903,-94.0367,4.0,3.110787682,88.71018419,4.09,'11111222,11111222,11111222' 
TABS,ioos:station:wmo:42046:1,2007-09-03T04:00:00Z,27.8903,-94.0367,4.0,2.971363323,88.26387855,4.15,'11111222,11111222,11111222' 
TABS,ioos:station:wmo:42046:1,2007-09-03T04:30:00Z,27.8903,-94.0367,4.0,3.534883308,102.5819415,4.83,'11111222,11111222,11111222' 
TABS,ioos:station:wmo:42046:1,2007-09-03T05:00:00Z,27.8903,-94.0367,4.0,4.06773893,103.2167141,5.01,'11111222,11111222,11111222' 
TABS,ioos:station:wmo:42046:1,2007-09-03T05:30:00Z,27.8903,-94.0367,4.0,3.677295202,101.7686823,4.47,'11111222,11111222,11111222' 
TABS,ioos:station:wmo:42046:1,2007-09-03T06:00:00Z,27.8903,-94.0367,4.0,3.059493422,99.21642205,4.11,'11111222,11111222,11111222' 
TABS,ioos:station:wmo:42046:1,2007-09-03T06:30:00Z,27.8903,-94.0367,4.0,3.732505861,114.3680938,4.61,'11111222,11111222,11111222' 
TABS,ioos:station:wmo:42046:1,2007-09-03T07:00:00Z,27.8903,-94.0367,4.0,1.830519052,123.8640323,4.38,'11111222,11111222,11111222' 
TABS,ioos:station:wmo:42046:1,2007-09-03T07:30:00Z,27.8903,-94.0367,4.0,3.827688598,55.64532276,4.82,'11111222,11111222,11111222' 
TABS,ioos:station:wmo:42046:1,2007-09-03T08:00:00Z,27.8903,-94.0367,4.0,3.719274123,56.18141237,4.78,'11111222,11111222,11111222' 
TABS,ioos:station:wmo:42046:1,2007-09-03T08:30:00Z,27.8903,-94.0367,4.0,3.533072317,81.04383503,4.77,'11111222,11111222,11111222' 
TABS,ioos:station:wmo:42046:1,2007-09-03T09:00:00Z,27.8903,-94.0367,4.0,3.416957711,95.7110007,4.56,'11111222,11111222,11111222' 
TABS,ioos:station:wmo:42046:1,2007-09-03T09:30:00Z,27.8903,-94.0367,4.0,4.242876383,120.9177868,5.33,'11111222,11111222,11111222' 
TABS,ioos:station:wmo:42046:1,2007-09-03T10:00:00Z,27.8903,-94.0367,4.0,4.603237991,138.1703743,5.66,'11111222,11111222,11111222' 
TABS,ioos:station:wmo:42046:1,2007-09-03T10:30:00Z,27.8903,-94.0367,4.0,4.049345626,123.9258699,4.82,'11111222,11111222,11111222' 
TABS,ioos:station:wmo:42046:1,2007-09-03T11:00:00Z,27.8903,-94.0367,4.0,4.219111281,122.7110923,5.5,'11111222,11111222,11111222' 
TABS,ioos:station:wmo:42046:1,2007-09-03T11:30:00Z,27.8903,-94.0367,4.0,3.787994192,116.1595444,5.07,'11111222,11111222,11111222' 
TABS,ioos:station:wmo:42046:1,2007-09-03T12:00:00Z,27.8903,-94.0367,4.0,3.486330449,123.4169242,6.33,'11111222,11111222,11111222' 
TABS,ioos:station:wmo:42046:1,2007-09-03T12:30:00Z,27.8903,-94.0367,4.0,2.671872003,177.8553087,3.47,'11111222,11111222,11111222' 
TABS,ioos:station:wmo:42046:1,2007-09-03T13:00:00Z,27.8903,-94.0367,4.0,3.281249762,134.259465,4.29,'11111222,11111222,11111222' 
TABS,ioos:station:wmo:42046:1,2007-09-03T13:30:00Z,27.8903,-94.0367,4.0,3.20224921,138.5450739,4.43,'11111222,11111222,11111222' 
TABS,ioos:station:wmo:42046:1,2007-09-03T14:00:00Z,27.8903,-94.0367,4.0,3.763243282,156.8416572,4.81,'11111222,11111222,11111222' 
TABS,ioos:station:wmo:42046:1,2007-09-03T14:30:00Z,27.8903,-94.0367,4.0,3.576492695,158.1691034,4.32,'11111222,11111222,11111222' 
TABS,ioos:station:wmo:42046:1,2007-09-03T15:00:00Z,27.8903,-94.0367,4.0,3.452318062,157.5208286,4.36,'11111222,11111222,11111222' 
TABS,ioos:station:wmo:42046:1,2007-09-03T15:30:00Z,27.8903,-94.0367,4.0,3.330975833,146.2625151,4.01,'11111222,11111222,11111222' 
TABS,ioos:station:wmo:42046:1,2007-09-03T16:00:00Z,27.8903,-94.0367,4.0,4.074898772,148.6507029,4.91,'11111222,11111222,11111222' 
TABS,ioos:station:wmo:42046:1,2007-09-03T16:30:00Z,27.8903,-94.0367,4.0,3.833014479,146.0614723,4.98,'11111222,11111222,11111222' 
TABS,ioos:station:wmo:42046:1,2007-09-03T17:00:00Z,27.8903,-94.0367,4.0,3.16622804,142.4427395,4.04,'11111222,11111222,11111222' 
TABS,ioos:station:wmo:42046:1,2007-09-03T17:30:00Z,27.8903,-94.0367,4.0,3.601805103,155.2140176,4.54,'11111222,11111222,11111222' 
TABS,ioos:station:wmo:42046:1,2007-09-03T18:00:00Z,27.8903,-94.0367,4.0,2.950254226,167.471432,3.75,'11111222,11111222,11111222' 
TABS,ioos:station:wmo:42046:1,2007-09-03T18:30:00Z,27.8903,-94.0367,4.0,3.813449882,175.1866708,4.6,'11111222,11111222,11111222' 
TABS,ioos:station:wmo:42046:1,2007-09-03T19:00:00Z,27.8903,-94.0367,4.0,3.844164409,167.9887602,4.91,'11111222,11111222,11111222' 
TABS,ioos:station:wmo:42046:1,2007-09-03T19:30:00Z,27.8903,-94.0367,4.0,3.956083922,166.7016712,5.12,'11111222,11111222,11111222' 
TABS,ioos:station:wmo:42046:1,2007-09-03T20:00:00Z,27.8903,-94.0367,4.0,3.790118732,171.6563384,4.8,'11111222,11111222,11111222' 
TABS,ioos:station:wmo:42046:1,2007-09-03T20:30:00Z,27.8903,-94.0367,4.0,3.778160928,174.3801689,4.7,'11111222,11111222,11111222' 
TABS,ioos:station:wmo:42046:1,2007-09-03T21:00:00Z,27.8903,-94.0367,4.0,3.280060975,180.3495698,4.21,'11111222,11111222,11111222' 
TABS,ioos:station:wmo:42046:1,2007-09-03T21:30:00Z,27.8903,-94.0367,4.0,3.111301978,181.6578212,3.84,'11111222,11111222,11111222' 
TABS,ioos:station:wmo:42046:1,2007-09-03T22:00:00Z,27.8903,-94.0367,4.0,4.149036033,210.087593,7.27,'11111222,11111222,11111222' 
TABS,ioos:station:wmo:42046:1,2007-09-03T22:30:00Z,27.8903,-94.0367,4.0,4.546141221,258.1957521,5.74,'11111222,11111222,11111222' 
TABS,ioos:station:wmo:42046:1,2007-09-03T23:00:00Z,27.8903,-94.0367,4.0,2.964000675,323.0913171,4.14,'11111222,11111222,11111222' 
TABS,ioos:station:wmo:42046:1,2007-09-03T23:30:00Z,27.8903,-94.0367,4.0,2.676751763,20.33031308,3.72,'11111222,11111222,11111222' 
TABS,ioos:station:wmo:42046:1,2007-09-04T00:00:00Z,27.8903,-94.0367,4.0,1.928652379,74.66633015,2.85,'11111222,11111222,11111222' 
TABS,ioos:station:wmo:42046:1,2007-09-04T00:30:00Z,27.8903,-94.0367,4.0,0.915259526,213.8638218,1.52,'11111222,11111222,11111222' 
TABS,ioos:station:wmo:42046:1,2007-09-04T01:00:00Z,27.8903,-94.0367,4.0,1.46,311.1119943,2.39,'11111222,11111222,11111222' 
TABS,ioos:station:wmo:42046:1,2007-09-04T01:30:00Z,27.8903,-94.0367,4.0,1.931864384,348.0500603,2.75,'11111222,11111222,11111222' 
TABS,ioos:station:wmo:42046:1,2007-09-04T02:00:00Z,27.8903,-94.0367,4.0,1.597654531,343.2662345,2.27,'11111222,11111222,11111222' 
TABS,ioos:station:wmo:42046:1,2007-09-04T02:30:00Z,27.8903,-94.0367,4.0,0.99362971,28.88630376,1.78,'11111222,11111222,11111222' 
TABS,ioos:station:wmo:42046:1,2007-09-04T03:00:00Z,27.8903,-94.0367,4.0,1.665082581,41.34747007,2.32,'11111222,11111222,11111222' 
TABS,ioos:station:wmo:42046:1,2007-09-04T03:30:00Z,27.8903,-94.0367,4.0,1.868502074,67.0023619,2.86,'11111222,11111222,11111222' 
TABS,ioos:station:wmo:42046:1,2007-09-04T04:00:00Z,27.8903,-94.0367,4.0,2.217205448,105.1648464,3.02,'11111222,11111222,11111222' 
TABS,ioos:station:wmo:42046:1,2007-09-04T04:30:00Z,27.8903,-94.0367,4.0,2.468440803,123.4329029,3.55,'11111222,11111222,11111222' 
TABS,ioos:station:wmo:42046:1,2007-09-04T05:00:00Z,27.8903,-94.0367,4.0,2.510318705,122.8041389,3.62,'11111222,11111222,11111222' 
TABS,ioos:station:wmo:42046:1,2007-09-04T05:30:00Z,27.8903,-94.0367,4.0,3.048097767,123.8989461,4.05,'11111222,11111222,11111222' 
TABS,ioos:station:wmo:42046:1,2007-09-04T06:00:00Z,27.8903,-94.0367,4.0,3.113326196,110.2979432,4.03,'11111222,11111222,11111222' 
TABS,ioos:station:wmo:42046:1,2007-09-04T06:30:00Z,27.8903,-94.0367,4.0,2.920308203,116.6531521,3.97,'11111222,11111222,11111222' 
TABS,ioos:station:wmo:42046:1,2007-09-04T07:00:00Z,27.8903,-94.0367,4.0,3.475888376,117.9661826,4.97,'11111222,11111222,11111222' 
TABS,ioos:station:wmo:42046:1,2007-09-04T07:30:00Z,27.8903,-94.0367,4.0,3.604843963,125.6303981,4.68,'11111222,11111222,11111222' 
TABS,ioos:station:wmo:42046:1,2007-09-04T08:00:00Z,27.8903,-94.0367,4.0,3.903664945,125.196771,4.92,'11111222,11111222,11111222' 
TABS,ioos:station:wmo:42046:1,2007-09-04T08:30:00Z,27.8903,-94.0367,4.0,3.364817974,140.0639207,4.39,'11111222,11111222,11111222' 
TABS,ioos:station:wmo:42046:1,2007-09-04T09:00:00Z,27.8903,-94.0367,4.0,3.726781453,134.2393177,4.91,'11111222,11111222,11111222' 
TABS,ioos:station:wmo:42046:1,2007-09-04T09:30:00Z,27.8903,-94.0367,4.0,3.694996617,137.6327444,5.42,'11111222,11111222,11111222' 
TABS,ioos:station:wmo:42046:1,2007-09-04T10:00:00Z,27.8903,-94.0367,4.0,3.597902167,130.1525232,4.59,'11111222,11111222,11111222' 
TABS,ioos:station:wmo:42046:1,2007-09-04T10:30:00Z,27.8903,-94.0367,4.0,2.905236651,149.3747494,4.25,'11111222,11111222,11111222' 
TABS,ioos:station:wmo:42046:1,2007-09-04T11:00:00Z,27.8903,-94.0367,4.0,3.055110473,154.6094919,4.06,'11111222,11111222,11111222' 
TABS,ioos:station:wmo:42046:1,2007-09-04T11:30:00Z,27.8903,-94.0367,4.0,3.292369967,162.5008853,4.16,'11111222,11111222,11111222' 
TABS,ioos:station:wmo:42046:1,2007-09-04T12:00:00Z,27.8903,-94.0367,4.0,3.299515116,167.3960926,4.0,'11111222,11111222,11111222' 
TABS,ioos:station:wmo:42046:1,2007-09-04T12:30:00Z,27.8903,-94.0367,4.0,3.381552898,160.1184819,4.31,'11111222,11111222,11111222' 
TABS,ioos:station:wmo:42046:1,2007-09-04T13:00:00Z,27.8903,-94.0367,4.0,3.067784217,170.9984764,4.32,'11111222,11111222,11111222' 
TABS,ioos:station:wmo:42046:1,2007-09-04T13:30:00Z,27.8903,-94.0367,4.0,3.356724594,166.2123898,4.24,'11111222,11111222,11111222' 
TABS,ioos:station:wmo:42046:1,2007-09-04T14:00:00Z,27.8903,-94.0367,4.0,3.636839287,167.4543442,4.84,'11111222,11111222,11111222' 
TABS,ioos:station:wmo:42046:1,2007-09-04T14:30:00Z,27.8903,-94.0367,4.0,3.414923132,169.7103948,4.15,'11111222,11111222,11111222' 
TABS,ioos:station:wmo:42046:1,2007-09-04T15:00:00Z,27.8903,-94.0367,4.0,3.143962468,169.3693851,3.95,'11111222,11111222,11111222' 
TABS,ioos:station:wmo:42046:1,2007-09-04T15:30:00Z,27.8903,-94.0367,4.0,3.280746866,159.853023,4.29,'11111222,11111222,11111222' 
TABS,ioos:station:wmo:42046:1,2007-09-04T16:00:00Z,27.8903,-94.0367,4.0,2.989397933,163.0807091,4.02,'11111222,11111222,11111222' 
TABS,ioos:station:wmo:42046:1,2007-09-04T16:30:00Z,27.8903,-94.0367,4.0,2.648206941,173.2777497,3.56,'11111222,11111222,11111222' 
TABS,ioos:station:wmo:42046:1,2007-09-04T17:00:00Z,27.8903,-94.0367,4.0,1.872164523,160.9846255,2.95,'11111222,11111222,11111222' 
TABS,ioos:station:wmo:42046:1,2007-09-04T17:30:00Z,27.8903,-94.0367,4.0,1.645144371,175.4679593,2.4,'11111222,11111222,11111222' 
TABS,ioos:station:wmo:42046:1,2007-09-04T18:00:00Z,27.8903,-94.0367,4.0,1.871710448,177.5505536,2.7,'11111222,11111222,11111222' 
TABS,ioos:station:wmo:42046:1,2007-09-04T18:30:00Z,27.8903,-94.0367,4.0,2.090861067,178.355811,2.96,'11111222,11111222,11111222' 